EW6819 Weather Reports


Display with metric or nautical units.
time (UTC)temp
F
wind
direction
speed
MPH
gust
MPH
rain 1hr
in
rain 24hr
in
rain mn
in
humidity
%
barometer
mb
20260906100503 60 291 2.0 6.0 0.00 0.00 0.00 59 1016.5
20260906100004 60 278 3.0 6.0 0.00 0.00 0.00 59 1016.5
20260906095503 60 284 3.0 8.0 0.00 0.00 0.00 59 1016.5
20260906095003 61 288 3.0 8.0 0.00 0.00 0.00 59 1016.6
20260906094503 60 287 2.0 6.0 0.00 0.00 0.00 59 1016.5
20260906094003 60 288 2.0 6.0 0.00 0.00 0.00 59 1016.4
20260906093503 60 284 2.0 6.0 0.00 0.00 0.00 59 1016.5
20260906093003 60 286 2.0 6.0 0.00 0.00 0.00 59 1016.4
20260906092503 60 279 2.0 6.0 0.00 0.00 0.00 58 1016.3
20260906092003 60 270 2.0 6.0 0.00 0.00 0.00 57 1016.4
20260906091503 60 266 2.0 4.0 0.00 0.00 0.00 57 1016.2
20260906091003 60 268 2.0 6.0 0.00 0.00 0.00 57 1016.2
20260906090503 60 273 2.0 6.0 0.00 0.00 0.00 57 1016.0
20260906090213 60 269 2.0 4.0 0.00 0.00 0.00 57 1016.1
20260906085503 60 272 2.0 6.0 0.00 0.00 0.00 57 1015.9
20260906085003 60 287 1.0 6.0 0.00 0.00 0.00 56 1016.0
20260906084503 60 305 0.0 3.0 0.00 0.00 0.00 56 1015.9
20260906084003 60 304 0.0 3.0 0.00 0.00 0.00 56 1015.8
20260906083503 60 293 0.0 3.0 0.00 0.00 0.00 56 1015.8
20260906083213 61 293 0.0 3.0 0.00 0.00 0.00 56 1015.7
20260906082503 61 292 0.0 1.0 0.00 0.00 0.00 56 1015.8
20260906082003 61 293 0.0 3.0 0.00 0.00 0.00 56 1015.8
20260906081503 61 295 1.0 3.0 0.00 0.00 0.00 56 1015.8
20260906081003 61 290 1.0 3.0 0.00 0.00 0.00 56 1015.8
20260906080503 62 271 1.0 3.0 0.00 0.00 0.00 56 1015.7
20260906080003 62 254 0.0 3.0 0.00 0.00 0.00 56 1015.7
20260906075714 62 252 0.0 3.0 0.00 0.00 0.00 56 1015.8
20260906075003 62 0 0.0 0.0 0.00 0.00 0.00 56 1015.8
20260906074503 62 0 0.0 0.0 0.00 0.00 0.00 56 1015.8
20260906074003 62 332 0.0 3.0 0.00 0.00 0.00 56 1015.7
20260906073503 62 330 1.0 3.0 0.00 0.00 0.00 56 1015.7
20260906073003 62 330 1.0 4.0 0.00 0.00 0.00 56 1015.7
20260906072713 62 332 1.0 4.0 0.00 0.00 0.00 56 1015.7
20260906072003 62 329 0.0 3.0 0.00 0.00 0.00 56 1015.8
20260906071503 62 331 1.0 3.0 0.00 0.00 0.00 56 1015.6
20260906071003 62 320 2.0 6.0 0.00 0.00 0.00 56 1015.7
20260906070503 62 314 2.0 6.0 0.00 0.00 0.00 56 1015.7
20260906070003 62 319 2.0 6.0 0.00 0.00 0.00 56 1015.6
20260906065503 62 316 2.0 5.0 0.00 0.00 0.00 56 1015.7
20260906065003 62 290 1.0 6.0 0.00 0.00 0.00 56 1015.7
20260906064503 62 285 1.0 6.0 0.00 0.00 0.00 56 1015.7
20260906064003 62 327 1.0 6.0 0.00 0.00 0.00 56 1015.7
20260906063713 62 6 1.0 3.0 0.00 0.00 0.00 55 1015.7
20260906063003 63 317 1.0 3.0 0.00 0.00 0.00 55 1015.7
20260906062503 63 323 1.0 5.0 0.00 0.00 0.00 55 1015.8
20260906062003 63 334 2.0 5.0 0.00 0.00 0.00 55 1015.8
20260906061503 63 328 2.0 9.0 0.00 0.00 0.00 55 1015.8
20260906061003 63 333 3.0 9.0 0.00 0.00 0.00 55 1015.7
20260906060503 63 337 2.0 8.0 0.00 0.00 0.00 56 1015.8
20260906060003 63 336 1.0 5.0 0.00 0.00 0.00 56 1015.9
20260906055503 63 348 2.0 8.0 0.00 0.00 0.00 56 1015.7
20260906055003 62 337 3.0 8.0 0.00 0.00 0.00 56 1015.8
20260906054503 62 313 2.0 7.0 0.00 0.00 0.00 56 1015.8
20260906054003 62 289 2.0 6.0 0.00 0.00 0.00 56 1015.8
20260906053503 62 245 0.0 4.0 0.00 0.00 0.00 56 1016.0
20260906053003 62 52 1.0 5.0 0.00 0.00 0.00 55 1016.0
20260906052503 62 42 2.0 5.0 0.00 0.00 0.00 56 1016.0
20260906052003 62 277 0.0 3.0 0.00 0.00 0.00 56 1016.0
20260906051503 61 269 0.0 1.0 0.00 0.00 0.00 56 1015.9
20260906051003 61 270 0.0 3.0 0.00 0.00 0.00 56 1015.8
20260906050503 61 270 1.0 3.0 0.00 0.00 0.00 56 1015.9
20260906050003 61 270 1.0 2.0 0.00 0.00 0.00 56 1016.0
20260906045503 61 270 1.0 2.0 0.00 0.00 0.00 57 1015.9
20260906045003 61 270 0.0 2.0 0.00 0.00 0.00 57 1016.0
20260906044503 61 0 0.0 0.0 0.00 0.00 0.00 57 1015.9
20260906044003 60 0 0.0 0.0 0.00 0.00 0.00 57 1015.9
20260906043503 60 0 0.0 0.0 0.00 0.00 0.00 57 1015.9
20260906043003 60 0 0.0 0.0 0.00 0.00 0.00 57 1016.0
20260906042503 60 0 0.0 0.0 0.00 0.00 0.00 57 1015.9
20260906042003 60 0 0.0 0.0 0.00 0.00 0.00 57 1015.8
20260906041712 60 0 0.0 0.0 0.00 0.00 0.00 57 1015.7
20260906041003 60 0 0.0 0.0 0.00 0.00 0.00 57 1015.7
20260906040503 60 0 0.0 0.0 0.00 0.00 0.00 57 1015.8
20260906040003 60 0 0.0 0.0 0.00 0.00 0.00 57 1015.8
20260906035503 60 269 0.0 2.0 0.00 0.00 0.00 57 1015.8
20260906035003 60 269 1.0 3.0 0.00 0.00 0.00 57 1015.7
20260906034503 60 269 2.0 3.0 0.00 0.00 0.00 58 1015.8
20260906034003 60 270 2.0 3.0 0.00 0.00 0.00 58 1015.7
20260906033503 60 271 2.0 3.0 0.00 0.00 0.00 58 1015.7
20260906033003 60 272 2.0 3.0 0.00 0.00 0.00 58 1015.6
20260906032714 60 272 2.0 3.0 0.00 0.00 0.00 58 1015.6
20260906032003 60 273 2.0 3.0 0.00 0.00 0.00 58 1015.6
20260906031503 60 280 2.0 4.0 0.00 0.00 0.00 58 1015.7
20260906031213 60 284 2.0 4.0 0.00 0.00 0.00 58 1015.7
20260906030503 60 290 2.0 3.0 0.00 0.00 0.00 58 1015.6
20260906030003 60 290 2.0 3.0 0.00 0.00 0.00 58 1015.6
20260906025503 60 287 2.0 3.0 0.00 0.00 0.00 58 1015.6
20260906025213 60 279 2.0 3.0 0.00 0.00 0.00 58 1015.7
20260906024503 61 265 1.0 3.0 0.00 0.00 0.00 58 1015.6
20260906024003 61 265 2.0 3.0 0.00 0.00 0.00 58 1015.4
20260906023714 61 265 2.0 3.0 0.00 0.00 0.00 58 1015.5
20260906023003 61 271 2.0 4.0 0.00 0.00 0.00 58 1015.4
20260906022503 61 273 3.0 4.0 0.00 0.00 0.00 58 1015.4
20260906022003 61 274 3.0 4.0 0.00 0.00 0.00 58 1015.5
20260906021503 61 290 3.0 4.0 0.00 0.00 0.00 58 1015.5
20260906021212 61 306 2.0 4.0 0.00 0.00 0.00 57 1015.5
20260906020503 62 315 2.0 5.0 0.00 0.00 0.00 57 1015.4
20260906020003 62 318 2.0 5.0 0.00 0.00 0.00 57 1015.2
20260906015713 62 319 2.0 5.0 0.00 0.00 0.00 57 1015.2
20260906015004 62 302 3.0 6.0 0.00 0.00 0.00 57 1015.2
20260906014713 62 295 3.0 6.0 0.00 0.00 0.00 58 1015.2
20260906014003 62 287 2.0 9.0 0.00 0.00 0.00 58 1015.2
20260906013713 62 289 3.0 9.0 0.00 0.00 0.00 58 1015.2
20260906013003 62 306 2.0 7.0 0.00 0.00 0.00 58 1015.3
20260906012713 62 306 2.0 7.0 0.00 0.00 0.00 58 1015.2
20260906012003 62 290 0.0 4.0 0.00 0.00 0.00 59 1015.2
20260906011713 62 349 0.0 1.0 0.00 0.00 0.00 59 1015.2
20260906011003 62 350 1.0 2.0 0.00 0.00 0.00 59 1015.3
20260906010713 62 350 1.0 2.0 0.00 0.00 0.00 59 1015.3
20260906010003 62 333 1.0 3.0 0.00 0.00 0.00 59 1015.2
20260906005503 62 313 2.0 4.0 0.00 0.00 0.00 59 1015.1
20260906005214 62 318 1.0 4.0 0.00 0.00 0.00 59 1015.1
20260906004503 62 342 1.0 4.0 0.00 0.00 0.00 59 1015.1
20260906004003 62 20 1.0 4.0 0.00 0.00 0.00 60 1015.0
20260906003503 62 38 1.0 4.0 0.00 0.00 0.00 60 1015.0
20260906003003 62 304 0.0 4.0 0.00 0.00 0.00 60 1014.9
20260906002503 62 269 1.0 4.0 0.00 0.00 0.00 60 1014.9
20260906002003 62 266 1.0 4.0 0.00 0.00 0.00 60 1014.9
20260906001503 62 261 2.0 7.0 0.00 0.00 0.00 60 1014.9
20260906001003 62 262 3.0 7.0 0.00 0.00 0.00 60 1014.8
20260906000713 62 264 3.0 7.0 0.00 0.00 0.00 61 1014.8
20260906000003 62 270 1.0 4.0 0.00 0.00 0.00 62 1014.8
20260905235503 63 283 1.0 3.0 0.00 0.00 0.00 62 1014.8
20260905235003 63 290 2.0 4.0 0.00 0.00 0.00 63 1014.9
20260905234503 63 299 2.0 4.0 0.00 0.00 0.00 63 1014.9
20260905234214 63 292 2.0 4.0 0.00 0.00 0.00 63 1014.9
20260905233503 64 263 2.0 4.0 0.00 0.00 0.00 63 1014.9
20260905233003 64 256 2.0 4.0 0.00 0.00 0.00 63 1015.0
20260905232712 64 268 2.0 4.0 0.00 0.00 0.00 63 1015.0
20260905232003 64 298 2.0 4.0 0.00 0.00 0.00 62 1014.9
20260905231503 65 298 2.0 4.0 0.00 0.00 0.00 62 1014.9
20260905231003 65 304 2.0 7.0 0.00 0.00 0.00 61 1015.0
20260905230503 65 309 2.0 8.0 0.00 0.00 0.00 61 1014.9
20260905230003 65 310 2.0 8.0 0.00 0.00 0.00 61 1014.9
20260905225503 65 313 2.0 4.0 0.00 0.00 0.00 60 1014.9
20260905225003 66 311 1.0 4.0 0.00 0.00 0.00 60 1014.9
20260905224503 66 308 1.0 5.0 0.00 0.00 0.00 60 1015.0
20260905224003 66 310 2.0 5.0 0.00 0.00 0.00 59 1014.9
20260905223503 66 298 2.0 4.0 0.00 0.00 0.00 59 1014.9
20260905223003 67 300 2.0 4.0 0.00 0.00 0.00 58 1014.8
20260905222714 67 299 2.0 7.0 0.00 0.00 0.00 58 1014.7
20260905222003 67 278 2.0 7.0 0.00 0.00 0.00 57 1014.8
20260905221503 67 297 3.0 7.0 0.00 0.00 0.00 57 1014.7
20260905221003 68 316 2.0 7.0 0.00 0.00 0.00 56 1014.7
20260905220503 68 322 2.0 9.0 0.00 0.00 0.00 56 1014.6
20260905220003 68 324 3.0 9.0 0.00 0.00 0.00 55 1014.5
20260905215503 68 328 4.0 9.0 0.00 0.00 0.00 56 1014.5
20260905215003 68 323 4.0 10.0 0.00 0.00 0.00 55 1014.4
20260905214503 68 311 3.0 10.0 0.00 0.00 0.00 56 1014.4
20260905214003 68 298 2.0 5.0 0.00 0.00 0.00 57 1014.4
20260905213503 69 304 2.0 8.0 0.00 0.00 0.00 56 1014.3
20260905213003 69 317 3.0 8.0 0.00 0.00 0.00 54 1014.3
20260905212503 70 335 5.0 13.0 0.00 0.00 0.00 54 1014.2
20260905212003 70 341 6.0 13.0 0.00 0.00 0.00 53 1014.1
20260905211503 71 344 5.0 11.0 0.00 0.00 0.00 53 1014.1
20260905211003 71 343 5.0 11.0 0.00 0.00 0.00 53 1014.0
20260905210503 70 332 3.0 8.0 0.00 0.00 0.00 54 1014.1
20260905210003 70 319 3.0 9.0 0.00 0.00 0.00 54 1014.0
20260905205714 70 322 3.0 9.0 0.00 0.00 0.00 53 1014.0
20260905205003 70 346 3.0 7.0 0.00 0.00 0.00 54 1013.9
20260905204503 69 350 3.0 7.0 0.00 0.00 0.00 55 1014.0
20260905204212 69 331 2.0 6.0 0.00 0.00 0.00 54 1014.0
20260905203503 69 321 2.0 7.0 0.00 0.00 0.00 54 1014.0
20260905203003 69 304 3.0 7.0 0.00 0.00 0.00 54 1014.0
20260905202503 70 305 3.0 7.0 0.00 0.00 0.00 53 1014.2
20260905202003 70 325 3.0 10.0 0.00 0.00 0.00 53 1014.2
20260905201713 71 328 4.0 10.0 0.00 0.00 0.00 52 1014.0
20260905201003 71 339 4.0 11.0 0.00 0.00 0.00 51 1014.1
20260905200503 71 340 4.0 11.0 0.00 0.00 0.00 51 1014.1
20260905200003 70 321 3.0 8.0 0.00 0.00 0.00 53 1014.0
20260905195503 70 309 3.0 8.0 0.00 0.00 0.00 54 1014.1
20260905195004 70 325 3.0 7.0 0.00 0.00 0.00 52 1014.2
20260905194503 71 331 4.0 12.0 0.00 0.00 0.00 53 1014.2
20260905194003 71 331 4.0 12.0 0.00 0.00 0.00 51 1014.1
20260905193503 71 332 4.0 10.0 0.00 0.00 0.00 52 1014.1
20260905193003 71 334 3.0 9.0 0.00 0.00 0.00 53 1014.2
20260905192503 71 360 3.0 12.0 0.00 0.00 0.00 53 1014.2
20260905192003 71 23 4.0 12.0 0.00 0.00 0.00 52 1014.3
20260905191503 72 29 4.0 10.0 0.00 0.00 0.00 52 1014.3
20260905191003 72 24 4.0 10.0 0.00 0.00 0.00 51 1014.2
20260905190503 71 21 3.0 8.0 0.00 0.00 0.00 52 1014.2
20260905190004 72 14 5.0 13.0 0.00 0.00 0.00 51 1014.2
20260905185503 72 20 5.0 13.0 0.00 0.00 0.00 52 1014.2
20260905185003 72 32 4.0 12.0 0.00 0.00 0.00 53 1014.2
20260905184503 71 19 4.0 12.0 0.00 0.00 0.00 53 1014.3
20260905184214 72 16 4.0 12.0 0.00 0.00 0.00 52 1014.2
20260905183503 72 14 5.0 13.0 0.00 0.00 0.00 51 1014.1
20260905183003 73 16 5.0 11.0 0.00 0.00 0.00 51 1014.1
20260905182503 73 22 6.0 15.0 0.00 0.00 0.00 51 1014.0
20260905182214 73 30 6.0 15.0 0.00 0.00 0.00 49 1014.1
20260905181713 74 62 5.0 11.0 0.00 0.00 0.00 49 1014.1
20260905181213 73 37 5.0 11.0 0.00 0.00 0.00 48 1014.0
20260905180503 73 360 5.0 12.0 0.00 0.00 0.00 49 1014.1
20260905180003 73 356 4.0 11.0 0.00 0.00 0.00 46 1013.9
20260905175503 73 350 4.0 9.0 0.00 0.00 0.00 48 1013.9
20260905175003 73 344 4.0 12.0 0.00 0.00 0.00 46 1013.9
20260905174503 72 344 5.0 12.0 0.00 0.00 0.00 45 1014.0
20260905174003 72 346 4.0 10.0 0.00 0.00 0.00 45 1014.0
20260905173503 72 9 4.0 12.0 0.00 0.00 0.00 47 1014.1
20260905173004 72 22 5.0 12.0 0.00 0.00 0.00 48 1014.2
20260905172503 71 5 4.0 12.0 0.00 0.00 0.00 49 1014.1
20260905172003 70 5 3.0 8.0 0.00 0.00 0.00 48 1014.3
20260905171503 70 11 4.0 10.0 0.00 0.00 0.00 53 1014.3
20260905171213 70 5 5.0 10.0 0.00 0.00 0.00 51 1014.3
20260905170503 71 360 5.0 13.0 0.00 0.00 0.00 47 1014.3
20260905170213 71 1 4.0 13.0 0.00 0.00 0.00 47 1014.2
20260905165503 70 353 4.0 11.0 0.00 0.00 0.00 49 1014.3
20260905165213 70 349 4.0 11.0 0.00 0.00 0.00 50 1014.3
20260905164503 70 347 3.0 8.0 0.00 0.00 0.00 47 1014.3
20260905164003 70 359 4.0 10.0 0.00 0.00 0.00 50 1014.3
20260905163503 70 2 5.0 10.0 0.00 0.00 0.00 50 1014.3
20260905163213 70 355 4.0 9.0 0.00 0.00 0.00 49 1014.4
20260905162503 70 356 3.0 8.0 0.00 0.00 0.00 54 1014.3
20260905162213 69 350 3.0 8.0 0.00 0.00 0.00 53 1014.4
20260905161503 70 347 5.0 11.0 0.00 0.00 0.00 52 1014.5
20260905161213 70 358 5.0 11.0 0.00 0.00 0.00 52 1014.5
20260905160503 70 15 4.0 10.0 0.00 0.00 0.00 53 1014.4
20260905160003 69 2 3.0 7.0 0.00 0.00 0.00 53 1014.5
20260905155714 69 5 4.0 9.0 0.00 0.00 0.00 53 1014.5
20260905155213 68 3 5.0 13.0 0.00 0.00 0.00 53 1014.6
20260905154503 68 350 4.0 13.0 0.00 0.00 0.00 54 1014.5
20260905154003 68 333 3.0 8.0 0.00 0.00 0.00 53 1014.7
20260905153503 68 331 4.0 11.0 0.00 0.00 0.00 55 1014.8
20260905153003 68 338 5.0 11.0 0.00 0.00 0.00 53 1014.7
20260905152503 69 10 3.0 9.0 0.00 0.00 0.00 53 1014.6
20260905152003 69 20 3.0 9.0 0.00 0.00 0.00 55 1014.5
20260905151503 68 9 4.0 9.0 0.00 0.00 0.00 55 1014.6
20260905151003 68 8 4.0 9.0 0.00 0.00 0.00 55 1014.5
20260905150503 67 1 3.0 7.0 0.00 0.00 0.00 57 1014.4
20260905150003 67 8 4.0 10.0 0.00 0.00 0.00 56 1014.5
20260905145503 66 356 5.0 10.0 0.00 0.00 0.00 56 1014.6
20260905145003 66 330 5.0 10.0 0.00 0.00 0.00 57 1014.6
20260905144503 67 327 4.0 10.0 0.00 0.00 0.00 56 1014.6
20260905144003 67 344 5.0 10.0 0.00 0.00 0.00 56 1014.6
20260905143503 67 344 4.0 9.0 0.00 0.00 0.00 56 1014.5
20260905143003 67 326 4.0 9.0 0.00 0.00 0.00 57 1014.6
20260905142503 67 291 4.0 12.0 0.00 0.00 0.00 57 1014.6
20260905142003 67 264 4.0 12.0 0.00 0.00 0.00 56 1014.6
20260905141503 67 273 3.0 11.0 0.00 0.00 0.00 57 1014.6
20260905141003 67 316 3.0 8.0 0.00 0.00 0.00 57 1014.6
20260905140503 67 330 3.0 9.0 0.00 0.00 0.00 56 1014.6
20260905140003 67 339 4.0 11.0 0.00 0.00 0.00 57 1014.4
20260905135713 66 339 3.0 11.0 0.00 0.00 0.00 58 1014.5
20260905135003 66 323 3.0 8.0 0.00 0.00 0.00 57 1014.5
20260905134503 66 291 4.0 11.0 0.00 0.00 0.00 57 1014.5
20260905134003 66 303 4.0 12.0 0.00 0.00 0.00 58 1014.4
20260905133713 66 312 4.0 12.0 0.00 0.00 0.00 58 1014.5
20260905133003 65 297 3.0 13.0 0.00 0.00 0.00 60 1014.7
20260905132503 65 279 4.0 13.0 0.00 0.00 0.00 59 1014.6
20260905132003 65 275 4.0 11.0 0.00 0.00 0.00 58 1014.5
20260905131712 65 277 4.0 11.0 0.00 0.00 0.00 58 1014.4
20260905131003 65 278 3.0 10.0 0.00 0.00 0.00 58 1014.4
20260905130503 65 289 5.0 10.0 0.00 0.00 0.00 59 1014.4
20260905130003 65 299 5.0 10.0 0.00 0.00 0.00 57 1014.4
20260905125503 65 324 4.0 9.0 0.00 0.00 0.00 58 1014.4
20260905125003 65 345 4.0 9.0 0.00 0.00 0.00 58 1014.4
20260905124503 64 307 3.0 9.0 0.00 0.00 0.00 58 1014.4
20260905124003 64 283 3.0 8.0 0.00 0.00 0.00 58 1014.7
20260905123712 64 291 2.0 8.0 0.00 0.00 0.00 57 1014.9
20260905123003 64 73 2.0 6.0 0.00 0.00 0.00 57 1014.9
20260905122503 64 50 2.0 5.0 0.00 0.00 0.00 56 1014.9
20260905122003 63 357 2.0 8.0 0.00 0.00 0.00 56 1014.9
20260905121503 63 320 2.0 8.0 0.00 0.00 0.00 56 1014.8
20260905121003 62 291 2.0 7.0 0.00 0.00 0.00 56 1014.8
20260905120503 62 291 2.0 7.0 0.00 0.00 0.00 56 1014.6
20260905120213 62 294 2.0 7.0 0.00 0.00 0.00 57 1014.7
20260905115503 61 333 2.0 8.0 0.00 0.00 0.00 59 1014.5
20260905115003 61 330 1.0 8.0 0.00 0.00 0.00 60 1014.4
20260905114714 60 333 1.0 4.0 0.00 0.00 0.00 60 1014.4
20260905114213 60 330 1.0 4.0 0.00 0.00 0.00 60 1014.3
20260905113503 59 310 1.0 6.0 0.00 0.00 0.00 59 1014.2
20260905113213 59 302 1.0 6.0 0.00 0.00 0.00 59 1014.0
20260905112503 59 296 1.0 3.0 0.00 0.00 0.00 59 1014.0
20260905112003 59 297 1.0 3.0 0.00 0.00 0.00 59 1014.0
20260905111503 58 298 1.0 3.0 0.00 0.00 0.00 59 1013.9
20260905111003 58 300 2.0 4.0 0.00 0.00 0.00 58 1013.8
20260905110503 58 307 2.0 4.0 0.00 0.00 0.00 58 1013.8
20260905110003 58 314 2.0 3.0 0.00 0.00 0.00 58 1013.7
20260905105503 58 315 2.0 3.0 0.00 0.00 0.00 58 1013.9
20260905105003 58 315 1.0 3.0 0.00 0.00 0.00 58 1013.9
20260905104503 58 314 1.0 4.0 0.00 0.00 0.00 57 1013.9
20260905104003 59 285 2.0 6.0 0.00 0.00 0.00 57 1013.8
20260905103503 58 268 3.0 6.0 0.00 0.00 0.00 58 1013.8
20260905103003 58 263 3.0 6.0 0.00 0.00 0.00 58 1013.8
20260905102503 58 262 3.0 6.0 0.00 0.00 0.00 58 1013.9
20260905102003 58 263 2.0 6.0 0.00 0.00 0.00 58 1013.8
20260905101713 58 261 2.0 4.0 0.00 0.00 0.00 58 1013.7
20260905101003 58 256 1.0 4.0 0.00 0.00 0.00 58 1013.6